This is the latest recevied weather packets stored in our database for station/object KK7KRZ. If no packets are shown the sender has not sent any weather packets the latest 10 day(s).
| Time | Temp. | Humidity | Pressure | Rain* | Wind** | Luminosity | Snow |
|---|---|---|---|---|---|---|---|
| 1776974851 | 12.78° C | 65% | 1023.3 hPa | 0 mm | - | 200 W/m² | - |
| 1776974547 | 12.78° C | 65% | 1023.5 hPa | 0 mm | - | 201 W/m² | - |
| 1776974245 | 12.78° C | 66% | 1023.6 hPa | 0 mm | - | 189 W/m² | - |
| 1776973937 | 12.22° C | 68% | 1023.7 hPa | 0 mm | - | 165 W/m² | - |
| 1776973634 | 12.22° C | 67% | 1023.7 hPa | 0 mm | - | 153 W/m² | - |
| 1776973331 | 12.22° C | 69% | 1023.8 hPa | 0 mm | - | 144 W/m² | - |
| 1776973029 | 12.78° C | 67% | 1023.7 hPa | 0 mm | - | 140 W/m² | - |
| 1776972725 | 12.22° C | 67% | 1023.9 hPa | 0 mm | - | 152 W/m² | - |
| 1776972424 | 12.22° C | 65% | 1023.8 hPa | 0 mm | - | 181 W/m² | - |
| 1776972123 | 12.78° C | 65% | 1023.9 hPa | 0 mm | - | 181 W/m² | - |
| 1776971818 | 12.22° C | 64% | 1023.6 hPa | 0 mm | - | 180 W/m² | - |
| 1776971515 | 12.78° C | 65% | 1024 hPa | 0 mm | - | 220 W/m² | - |
| 1776971214 | 12.78° C | 65% | 1024 hPa | 0 mm | - | 272 W/m² | - |
| 1776970910 | 12.22° C | 65% | 1024 hPa | 0 mm | - | 275 W/m² | - |
| 1776970608 | 12.22° C | 67% | 1024.2 hPa | 0 mm | - | 216 W/m² | - |
| 1776970304 | 12.22° C | 67% | 1024.2 hPa | 0 mm | - | 173 W/m² | - |
| 1776970000 | 12.22° C | 67% | 1024.4 hPa | 0 mm | - | 171 W/m² | - |
| 1776969698 | 12.22° C | 67% | 1024.2 hPa | 0 mm | - | 169 W/m² | - |
| 1776969394 | 12.22° C | 65% | 1024.3 hPa | 0 mm | - | 181 W/m² | - |
| 1776969092 | 12.22° C | 67% | 1024.3 hPa | 0 mm | - | 180 W/m² | - |
| 1776968786 | 11.67° C | 65% | 1024.1 hPa | 0 mm | - | 179 W/m² | - |
| 1776968481 | 11.67° C | 67% | 1024.4 hPa | 0 mm | - | 180 W/m² | - |
| 1776968177 | 11.67° C | 68% | 1024.3 hPa | 0 mm | - | 196 W/m² | - |
| 1776967873 | 11.11° C | 68% | 1024.2 hPa | 0 mm | - | 187 W/m² | - |
| 1776967571 | 11.11° C | 71% | 1024.2 hPa | 0 mm | - | 159 W/m² | - |
* Rain latest hour (hover to see other rain measurements)
** Current wind speed in m/s (hover to see current wind gust speed)